Regional Weather Roundup
Issued by NWS Wakefield, VA

Home | Current Version | Previous Version | Graphics & Text | Print | Product List | Glossary On
Versions: 1 2 3 4 5 6 7 8 9 10 11 12 13 14 15 16 17 18 19 20 21 22 23 24 25 26 27 28 29 30 31 32 33 34 35 36 37 38 39 40 41 42 43 44 45 46 47 48 49 50
000
ASUS41 KAKQ 181410
RWRAKQ

REGIONAL WEATHER ROUNDUP
NATIONAL WEATHER SERVICE WAKEFIELD VA
900 AM EST THU DEC 18 2014

Note: "fair" indicates few or no clouds below 12,000 feet with no
significant weather and/or obstructions to visibility. * = Denotes
station may not report precipitation (e.g., rain,snow,etc.),
thunder or fog.

VAZ042-051-052>054-056-181500-
NORTHERN VIRGINIA

CITY           SKY/WX    TMP DP  RH WIND       PRES   REMARKS
WASH NATIONAL  MOSUNNY   39  19  44 NW8       30.18S
DULLES         MOSUNNY   33  19  56 NW15G24   30.17R WCI  23
FORT BELVOIR   MOSUNNY   36  20  52 NW12      30.19R
QUANTICO       MOSUNNY   37  19  48 NW16G26   30.19F
FREDERICKSBRG* MOSUNNY   37  24  58 N7        30.17S
STAFFORD*      MOSUNNY   35  20  53 N8        30.22S
WARRENTON      MOSUNNY   35  28  75 CALM      30.17R
CULPEPER*      SUNNY     34  25  69 N3        30.18R
MANASSAS*      MOSUNNY   36  21  55 NW8       30.18
LEESBURG*      CLOUDY    34  23  64 NW12      30.18R
WINCHESTER     CLOUDY    34  18  51 W14       30.16S WCI  24
FRONT ROYAL*   CLOUDY    32  21  64 W7        30.16R
LURAY*         SUNNY     34  23  64 W3        30.17R
$$

VAZ048-049-060>072-079>083-181500-
CENTRAL AND SOUTH CENTRAL VIRGINIA

CITY           SKY/WX    TMP DP  RH WIND       PRES   REMARKS
RICHMOND       PTSUNNY   37  24  59 N12       30.18R
CHESTERFIELD*  MOSUNNY   36  21  55 N6        30.19S
PETERSBURG*    MOSUNNY   37  30  77 CALM      30.19R
HANOVER        SUNNY     31  26  82 CALM      30.20R
TAPPAHANNOCK*  SUNNY     36  20  52 CALM      30.18S
QUINTON*       MOSUNNY   35  23  62 N5        30.18R
CHARLOTTSVILLE SUNNY     35  21  56 CALM      30.16R
GORDONSVILLE*  SUNNY     31  26  82 CALM      30.16R
ORANGE*        SUNNY     32  27  80 CALM      30.17S
LOUISA*        MOSUNNY   34  27  75 CALM      30.15S
BUMPASS*       SUNNY     34  23  63 N3        30.17S
FARMVILLE*     FAIR      39  33  79 CALM      30.16F
CREWE*         SUNNY     39  26  59 NW5       30.17R
FORT PICKETT*  SUNNY     38  28  65 NW3       30.17S
CHASE CITY*    SUNNY     37  28  72 CALM      30.17R
CLARKSVILLE*   SUNNY     39  27  60 N7        30.17S
SOUTH HILL*    SUNNY     36  28  71 N3        30.23R
LAWRENCEVILLE* SUNNY     35  31  87 CALM      30.18R
EMPORIA*       SUNNY     32  30  93 NW3       30.20S
$$

VAZ088>098-181500-
SOUTHEAST VIRGINIA

CITY           SKY/WX    TMP DP  RH WIND       PRES   REMARKS
NORFOLK        SUNNY     40  25  55 N13       30.17R
VIRGINIA BEACH MOSUNNY   42  27  55 N15       30.16R
NORFOLK NAVAL  MOSUNNY   43  26  51 N10       30.19R
WEST POINT*    SUNNY     38  25  60 CALM      30.20R
SALUDA*        FAIR      37  23  58 NW9       30.17R
NEWPORT NEWS   SUNNY     41  23  48 N7        30.18R
LANGLEY AFB    SUNNY     38  24  57 NW10      30.18R
FORT EUSTIS    SUNNY     39  22  51 N9        30.17R
WILLIAMSBURG*  SUNNY     39  27  60 N5        30.18R
HR EXEC AP*    SUNNY     37  27  65 N5        30.20R
FRANKLIN*      SUNNY     36  28  75 CALM      30.19R
WAKEFIELD      SUNNY     36  25  64 N5        30.19R
$$

VAZ020-022-025-037-045-181500-
WEST CENTRAL AND SOUTHWEST VIRGINIA

CITY           SKY/WX    TMP DP  RH WIND       PRES   REMARKS
STAUNTON*      SUNNY     29  23  76 CALM      30.17R
WAYNESBORO*    SUNNY     31  19  62 W5        30.13F
HOT SPRINGS VA SUNNY     21  20  97 W15       30.01S WCI   7
LYNCHBURG      MOSUNNY   32  26  78 CALM      30.17S
DANVILLE       MOSUNNY   39  26  59 W3        30.19R
SOUTH BOSTON*  SUNNY     38  25  60 W6        30.18S
MARTINSVILLE   PTSUNNY   38  27  66 N3        30.21S
ROANOKE        PTSUNNY   34  19  55 NW7         N/A
BLACKSBURG     MOSUNNY   29  21  73 W6        30.16S
DUBLIN*        MOSUNNY   31  25  78 CALM      30.15F
MARION*        PTSUNNY   29  26  87 W10       30.16S WCI  20
HILLSVILLE*    PTSUNNY   29  21  71 W6        30.10F
RICHLANDS*     CLOUDY    27  22  79 NW3       30.15R
WISE*          CLOUDY    30  27  86 SW5       30.16S
ABINGDON*      CLOUDY    32  29  87 CALM      30.18R
$$

MDZ021>025-VAZ099-100-181500-
SOUTHERN MARYLAND AND THE DELMARVA PENINSULA

CITY           SKY/WX    TMP DP  RH WIND       PRES   REMARKS
PATUXENT RIVER MOSUNNY   36  20  52 NW14      30.16R
BAY BRIDGE APT   N/A     36  21  55 NW15G21   30.16R
LEONARDTOWN    SUNNY     34  21  60 W6        30.18R
DOVER          SUNNY     37  20  50 NW15      30.09S
GEORGETOWN     SUNNY     37  22  54 W8        30.12S
EASTON         SUNNY     37  23  56 NW17G23   30.17R
CAMBRIDGE      SUNNY     37  21  52 NW13G21   30.14S
SALISBURY      SUNNY     39  21  48 NW10      30.13R
OCEAN CITY     SUNNY     36  22  56 NW8       30.13R
WALLOPS ISLAND SUNNY     37  26  64 NW9       30.15R
ACCOMACK*      SUNNY     37  23  56 NW13G20   30.16R
$$

NCZ012>017-030>032-181500-
NORTH CENTRAL AND EASTERN NORTH CAROLINA

CITY           SKY/WX    TMP DP  RH WIND       PRES   REMARKS
ROANOKE RAPIDS SUNNY     36  32  87 CALM      30.19R
RALEIGH        PTSUNNY   37  27  67 CALM      30.19R
ELIZABETH CITY SUNNY     43  30  60 N10       30.17R
AHOSKIE*       SUNNY     35  31  87 N3        30.19R
EDENTON*         N/A     38  32  77 N5        30.18R
CURRITUCK*     SUNNY     40  29  65 NW3       30.17S
KILL DEVIL HLS SUNNY     43  32  64 N7        30.14S
MANTEO         SUNNY     43  33  66 N9        30.16S
CAPE HATTERAS  SUNNY     46  37  71 N8G17     30.15R
TARBORO*       MOSUNNY   37  33  84 N5        30.20R
GOLDSBORO      MOSUNNY   41  37  86 NE7       30.18R
WASHINGTON     SUNNY     39  31  71 NE6       30.18R
GREENVILLE     MOSUNNY   37  32  81 NE5       30.20R
NEW BERN       SUNNY     43  34  70 NE6       30.18S
WILMINGTON     SUNNY     45  35  68 NE12      30.17R
$$

VAZ048-181500-
ELSEWHERE

CITY           SKY/WX    TMP DP  RH WIND       PRES   REMARKS
HARRISBURG PA  CLOUDY    34  21  59 NW16      30.11R WCI  24
BALTIMORE      MOSUNNY   35  19  52 W12       30.14S
ANNAPOLIS      SUNNY     36  18  48 W7        30.16R
ANDREWS AFB    SUNNY     35  19  51 NW15      30.15S
PHILADELPHIA   PTSUNNY   37  20  50 W14       30.10R
HENDERSON NC   MOSUNNY   38  24  57 N6        30.19R
GREENSBORO     PTSUNNY   39  23  52 N8        30.16R
ROCKY MOUNT    MOSUNNY   33  29  85 CALM      30.19R
$$

VAZ100-181500-
MARINE

STATION/POSITION TIME  TEMP    WIND        PRES    WAVE   SWELL
                       AIR SEA DIR/SP/G            HT/PER HT/PER
                 (UTC) (F)     (DEG/KT/KT) (MB)    (FT/S) (FT/S)
CAPE MAY NJ      1400   38 42  310/ 19/ 25 1018.6R
LEWES DE         1400   37 42  300/ 13/ 15 1019.5R
15NM E FENWICK I 1400   39 47              1018.7R   4/ 5
OCEAN-CITY-INLET 1400   36 45  320/ 11/ 13 1019.4S
WACHAPREAGUE VA  1400   40 44  320/  3/ 11 1020.9S
THOMAS POINT MD  1400   35 42  300/ 15/ 19 1022.2R
GOOSES REEF MD   1400   37     VRB 16/ 17  1020.3S
COVE POINT MD    1400   35     330/  9/ 14 1021.2R
SOLOMONS ISLAND  1400      44                N/A
BISHOPS HEAD MD  1400   38 40  320/ 15/ 19 1020.2S
PINEY POINT MD   1400          340/ 20/ 23   N/A
POTOMAC MD       1400   39     330/ 17/ 21 1020.3R
CAMBRIDGE MD     1400   37 41  320/ 16/ 19 1020.6F
LEWISETTA VA     1400   38 43  330/ 10/ 15 1021.3R
RAPPAHANNOCK LGT 1400          320/ 20/ 22 1021.6R
STINGRAY PT      1400   38     340/ 12/ 16 1021.8R
YORK RVR RNG VA  1400   38     360/ 13/ 15 1020.9R
YORKTOWN VA      1400   37 46  340/  8/ 10 1021.5R
JAMESTOWN VA     1400   36      10/  4/ 10   N/A
DOMINION TERM VA 1400   38     360/ 10/ 12 1021.8R
KIPTOPEKE VA     1400      50  360/ 13/ 17   N/A
CHES BAY BRIDGE  1400   39 46  330/ 19/ 22 1020.8S
CAPE HENRY VA    1400   40     340/ 18/ 23 1020.0R
CHESAPEAKE LGHT  1300   41     350/ 20/ 21 1021.0R
WILLOUBY STN VA  1400   38     360/ 14/ 16 1021.8R
S CRANEY ISL VA  1400          350/  9/ 12 1021.7R
CAPE HENRY BUOY  1400      49                N/A     4/ 5
1ST LANDING BUOY 1400   41     350/ 17/ 23 1020.8R
CAPE CHARLES BUO 1400      48                N/A     3/ 5   2/11
64NM E OF VA BCH 1400   44 54  340/ 17/ 21 1019.8R   6/ 6   2/14
DUCK PIER NC     1400   42 48  360/ 15/ 18 1020.1R
44100 DUCK FRF   1400      52                N/A     5/ 5
44056 DUCK FRF   1400      49                N/A     4/ 5
OREGON INLET NC  1400   45 51  350/ 10/ 15 1020.9R
HATTERAS NC      1400   45 55   10/ 15/ 18 1021.1R
DIAMOND SHLS NC  1300   51                 1019.9R   3/ 4
CAPE LOOKOUT NC  1300   45     360/ 12/ 14 1020.6R
$$


USA.gov is the U.S. government's official web portal to all federal, state and local government web resources and services.